[[{"header":{"parameterUnit":"m.s-1","parameterCategory":2,"la1":30.2991,"la2":30.254,"lo1":-89.0895,"lo2":-89.0444,"dy":0.0017,"dx":0.0017,"nx":28,"ny":28,"refTime":"2023-08-18T03:00:00:Z","depth":"0","parameterNumber":2,"parameterNumberName":"U-component_of_CURRENTS"},"data":[0,0,0,0,0,0,0,0,0,0,0,0,0,0,0,0,0,0,0,0,0,0,0,0,0,0,0,0,0,0,0,0,0,0,0,0,0,0,0,0,0,0,0,0,0,0,0,0,0,0,0,0,0,0,0,0,0,0,0.2004,0.2004,0,0.2096,0.2097,0.2098,0.2128,0.2127,0.2126,0.2125,0.2234,0.2238,0.2242,0,0,0,0,0,0,0,0,0,0,0,0,0,0.1949,0.195,0.2004,0.2004,0.2005,0.2095,0.2097,0.2099,0.2128,0.2127,0.2126,0.2125,0.2233,0.2237,0.2242,0,0,0,0,0,0,0,0,0,0,0,0,0,0.2005,0.195,0.2004,0.2026,0.2029,0.2095,0.2097,0.2099,0.2128,0.2127,0.2125,0.2124,0.2232,0.2237,0.2243,0.2305,0,0,0.226,0.2262,0,0,0,0,0,0,0,0,0.2002,0.2008,0.2022,0.2025,0.2028,0.2094,0.2118,0.2167,0.2128,0.2096,0.2125,0.2123,0.2187,0.2196,0.2224,0.231,0.2315,0.226,0.2264,0.2266,0.2268,0,0,0,0,0,0,0,0.1998,0.2004,0.2046,0.2023,0.2026,0.2064,0.2071,0.2128,0.2152,0.2099,0.21,0.2102,0.2189,0.2218,0.2226,0.2316,0.226,0.2265,0.2269,0.2271,0.252,0.2523,0,0,0,0,0,0,0.1972,0.2,0.2043,0.2048,0.2005,0.2066,0.2073,0.2079,0.2152,0.216,0.2103,0.2103,0.2209,0.222,0.223,0.2351,0.2266,0.2271,0.2275,0.2517,0.2521,0.2524,0,0,0,0,0,0,0.1971,0.1975,0.2039,0.2022,0.2031,0.2067,0.2074,0.2081,0.2114,0.2153,0.2163,0.2127,0.2208,0.2222,0.2308,0.2353,0.2274,0.2279,0.2513,0.2518,0.2522,0.2565,0,0,0,0,0,0,0.1969,0.1974,0.1991,0.202,0.2031,0.2082,0.2075,0.2084,0.2114,0.2115,0.2178,0.2186,0.2208,0.2299,0.2313,0.236,0.2283,0.2509,0.2515,0.2521,0.2559,0.2571,0.258,0,0,0,0,0,0.1967,0.2008,0.1992,0.1998,0.2046,0.2083,0.2094,0.2118,0.2117,0.2141,0.2196,0.2184,0.2347,0.2307,0.2323,0.2371,0.2506,0.2513,0.252,0.2555,0.2568,0.258,0,0,0,0,0,0,0.2024,0.2014,0.1998,0.2041,0.2052,0.2085,0.2119,0.2126,0.2189,0.2195,0.2229,0.2244,0.2338,0.2357,0.2311,0.2465,0.2424,0.2435,0.2445,0.2458,0.2469,0.2464,0.2288,0,0,0,0,0,0.2031,0.2037,0.204,0.2072,0.2076,0.2094,0.2118,0.2127,0.2173,0.2198,0.2239,0.2302,0.2383,0.2418,0.2482,0.2566,0.2599,0.2609,0.262,0.2628,0.2639,0.2743,0.2764,0.2548,0.2548,0.2548,0,0,0.207,0.2056,0.2069,0.208,0.2091,0.2129,0.2108,0.2142,0.2193,0.2203,0.2296,0.2341,0.2416,0.2514,0.2556,0.2531,0.2709,0.2637,0.2643,0.265,0.2753,0.2774,0.2792,0.2553,0.2552,0.2551,0,0,0.2132,0.2123,0.2144,0.2153,0.2154,0.2167,0.2173,0.2203,0.2235,0.232,0.2352,0.2427,0.2531,0.2597,0.2646,0.2757,0.2764,0.277,0.2816,0.2918,0.2936,0.2952,0.3019,0.3041,0.2771,0.2771,0.2771,0,0.2183,0.2188,0.2165,0.2186,0.2202,0.2183,0.2226,0.227,0.233,0.2368,0.2356,0.2535,0.2582,0.2723,0.2758,0.2781,0.2823,0.2755,0.2929,0.2946,0.2962,0.3026,0.305,0.2774,0.2773,0.2773,0.2773,0,0.2254,0.226,0.2277,0.2282,0.231,0.2335,0.2366,0.241,0.2432,0.2467,0.2587,0.2659,0.2757,0.2789,0.2811,0.295,0.2938,0.293,0.2887,0.2986,0.3048,0.3072,0.2778,0.2777,0.2776,0.2775,0,0,0.237,0.2329,0.2338,0.2322,0.235,0.2369,0.2464,0.2526,0.257,0.2646,0.2732,0.287,0.287,0.2928,0.2958,0.304,0.3183,0.3027,0.3031,0.3075,0.339,0.3316,0.3334,0.3199,0.3204,0.3208,0.3386,0,0.2427,0.2435,0.243,0.247,0.2472,0.2491,0.2565,0.2627,0.2673,0.275,0.2842,0.2927,0.2936,0.2967,0.3066,0.315,0.3248,0.3134,0.3305,0.331,0.3217,0.3361,0.3321,0.3472,0.3409,0.3413,0.3416,0,0.2494,0.248,0.2498,0.249,0.2502,0.2539,0.2608,0.2671,0.2783,0.2824,0.2928,0.2978,0.3129,0.3103,0.3331,0.3254,0.3338,0.3396,0.3405,0.3336,0.328,0.3368,0.3517,0.3379,0.3452,0.3449,0.3447,0,0.2509,0.2528,0.2515,0.2521,0.2537,0.2569,0.2598,0.2688,0.2727,0.2857,0.2893,0.3071,0.3136,0.3303,0.3415,0.3392,0.3634,0.3621,0.3644,0.3638,0.364,0.3625,0.3661,0.3805,0.3805,0.3804,0.3804,0,0.2529,0.2519,0.2506,0.2497,0.2507,0.2547,0.258,0.2636,0.2728,0.2779,0.2906,0.2982,0.3186,0.3329,0.3459,0.3616,0.3686,0.3689,0.37,0.3651,0.3637,0.354,0.3449,0.3811,0.3809,0.3808,0.3807,0,0.2484,0.248,0.2457,0.2478,0.2485,0.2483,0.2521,0.2551,0.2643,0.2722,0.2765,0.2938,0.3131,0.3313,0.3562,0.3637,0.372,0.3843,0.3745,0.3741,0.3616,0.3529,0.3485,0.3431,0.3934,0.3934,0.3933,0,0.2416,0.2408,0.2412,0.2397,0.2385,0.2398,0.2408,0.2492,0.2525,0.2692,0.2728,0.2922,0.3065,0.3378,0.3576,0.3815,0.3696,0.3862,0.3822,0.3631,0.3545,0.3378,0.3325,0.3855,0.3854,0.3853,0.3853,0,0.2307,0.232,0.2303,0.2286,0.2277,0.2276,0.2301,0.2326,0.2449,0.2526,0.2654,0.2789,0.3102,0.3309,0.3573,0.3736,0.3673,0.3848,0.3717,0.3546,0.3308,0.3253,0.3676,0.3845,0.3846,0.3847,0.3847,0.3847,0.2201,0.2174,0.2171,0.2149,0.2146,0.2145,0.2135,0.2199,0.2251,0.2371,0.2543,0.2705,0.3019,0.3403,0.3547,0.3672,0.3615,0.3644,0.3578,0.3443,0.3309,0.3676,0.3795,0.3795,0.3796,0.3796,0.3796,0,0.2043,0.2053,0.2037,0.2009,0.1982,0.2023,0.2051,0.2058,0.2102,0.2253,0.2376,0.2637,0.289,0.3166,0.3415,0.3398,0.3365,0.3327,0.3117,0.3105,0.3528,0.3439,0.3403,0.3403,0.3403,0.3403,0.3403,0.3403,0.196,0.1912,0.1931,0.1854,0.1847,0.1801,0.1812,0.1852,0.1938,0.2051,0.2162,0.2313,0.2595,0.2872,0.3012,0.3041,0.2884,0.2792,0.2735,0.3041,0.3065,0.3088,0.2984,0.2853,0.2852,0.2292,0.2287,0.2283]},{"header":{"parameterUnit":"m.s-1","parameterCategory":2,"la1":30.2991,"la2":30.254,"lo1":-89.0895,"lo2":-89.0444,"dy":0.0017,"dx":0.0017,"nx":28,"ny":28,"refTime":"2023-08-18T03:00:00:Z","depth":"0","parameterNumber":3,"parameterNumberName":"V-component_of_CURRENTS"},"data":[0,0,0,0,0,0,0,0,0,0,0,0,0,0,0,0,0,0,0,0,0,0,0,0,0,0,0,0,0,0,0,0,0,0,0,0,0,0,0,0,0,0,0,0,0,0,0,0,0,0,0,0,0,0,0,0,0,0,0.1329,0.1329,0,0.137,0.1371,0.1372,0.137,0.1368,0.1367,0.1366,0.1264,0.1262,0.1261,0,0,0,0,0,0,0,0,0,0,0,0,0,0.1373,0.1372,0.1329,0.1329,0.1329,0.137,0.1372,0.1373,0.137,0.1368,0.1367,0.1365,0.1264,0.1262,0.126,0,0,0,0,0,0,0,0,0,0,0,0,0,0.1384,0.1372,0.1329,0.1328,0.1327,0.137,0.1372,0.1373,0.137,0.1368,0.1366,0.1365,0.1265,0.1263,0.126,0.1283,0,0,0.1253,0.1252,0,0,0,0,0,0,0,0,0.1384,0.1384,0.1328,0.1328,0.1327,0.1357,0.1349,0.1333,0.1371,0.1361,0.1366,0.1364,0.1278,0.1275,0.1299,0.1278,0.1274,0.1253,0.1251,0.125,0.125,0,0,0,0,0,0,0,0.1383,0.1382,0.1353,0.1328,0.1328,0.1367,0.1366,0.1348,0.1332,0.1362,0.136,0.1354,0.1278,0.1301,0.1296,0.1272,0.1253,0.1251,0.1249,0.1248,0.1269,0.1271,0,0,0,0,0,0,0.1359,0.1381,0.1351,0.1353,0.1344,0.1367,0.1366,0.1355,0.1336,0.133,0.1356,0.1354,0.1306,0.1298,0.1292,0.1314,0.125,0.1248,0.1247,0.1267,0.127,0.1272,0,0,0,0,0,0,0.136,0.1356,0.1349,0.1363,0.1364,0.1366,0.1355,0.1357,0.1381,0.1331,0.1324,0.1377,0.1304,0.1295,0.1285,0.1309,0.1247,0.1245,0.1265,0.1268,0.1271,0.1359,0,0,0,0,0,0,0.1361,0.1356,0.1353,0.1361,0.1362,0.1376,0.1356,0.1359,0.1377,0.1375,0.1347,0.1336,0.1302,0.1289,0.1283,0.1305,0.1243,0.1263,0.1267,0.127,0.1353,0.1364,0.1373,0,0,0,0,0,0.1363,0.1375,0.1353,0.135,0.1353,0.1376,0.1382,0.1382,0.138,0.1398,0.1381,0.1337,0.1308,0.1289,0.1281,0.1303,0.1261,0.1265,0.127,0.1349,0.1362,0.1373,0,0,0,0,0,0,0.1426,0.1375,0.1352,0.1355,0.1358,0.1372,0.1393,0.1395,0.1405,0.1396,0.1359,0.1348,0.1349,0.1321,0.1301,0.1323,0.1279,0.1282,0.1342,0.1354,0.1364,0.1374,0.1241,0,0,0,0,0,0.1427,0.14,0.1381,0.1387,0.1386,0.1392,0.1405,0.1401,0.1403,0.1408,0.1398,0.1381,0.1366,0.1354,0.1339,0.1349,0.1315,0.1361,0.1372,0.138,0.1386,0.135,0.1356,0.1287,0.1286,0.1286,0,0,0.1459,0.1422,0.1414,0.1394,0.1398,0.142,0.1398,0.1416,0.145,0.1391,0.1443,0.1413,0.1378,0.1391,0.1389,0.1366,0.1389,0.1386,0.1393,0.1394,0.1355,0.1361,0.1367,0.129,0.1289,0.1289,0,0,0.1495,0.1471,0.1454,0.1458,0.144,0.145,0.1455,0.1473,0.1494,0.1529,0.1493,0.1485,0.1484,0.1463,0.1449,0.151,0.1443,0.1503,0.1559,0.1524,0.1529,0.1533,0.1519,0.1521,0.1508,0.1508,0.1508,0,0.1528,0.1504,0.1466,0.1464,0.1483,0.1466,0.1495,0.1523,0.1544,0.1564,0.1552,0.1557,0.1524,0.1524,0.1546,0.1531,0.1501,0.1511,0.1535,0.1538,0.154,0.1525,0.1525,0.1513,0.1512,0.1512,0.1511,0,0.1544,0.1543,0.1551,0.1527,0.1554,0.1576,0.1594,0.1633,0.1656,0.1669,0.1691,0.1659,0.1654,0.1648,0.1615,0.1618,0.159,0.155,0.1499,0.1552,0.1533,0.1533,0.1519,0.1518,0.1516,0.1515,0,0,0.1569,0.1555,0.1557,0.1569,0.1587,0.1612,0.168,0.1724,0.1759,0.1782,0.1828,0.1812,0.1779,0.1761,0.1713,0.1687,0.1685,0.1629,0.1625,0.1608,0.1617,0.1539,0.153,0.1635,0.1635,0.1635,0.1605,0,0.1591,0.1591,0.1594,0.1654,0.1676,0.1706,0.1776,0.1816,0.1844,0.1887,0.1861,0.1874,0.1825,0.1813,0.1782,0.1698,0.1683,0.1698,0.1575,0.1573,0.1488,0.1526,0.1521,0.1487,0.1603,0.1603,0.1603,0,0.16,0.16,0.1639,0.1708,0.1724,0.1767,0.1857,0.1916,0.1962,0.198,0.1979,0.1955,0.1931,0.1881,0.1784,0.1789,0.1721,0.1661,0.1658,0.1549,0.1491,0.1449,0.148,0.1372,0.1601,0.1601,0.1601,0,0.1612,0.1648,0.1676,0.1697,0.1766,0.1813,0.187,0.1936,0.1982,0.2029,0.2051,0.2014,0.1991,0.1909,0.1804,0.1787,0.1692,0.165,0.1527,0.1521,0.1476,0.1465,0.1378,0.1597,0.1597,0.1597,0.1597,0,0.1637,0.1668,0.1677,0.1697,0.177,0.1826,0.1905,0.1963,0.2016,0.2068,0.2083,0.2091,0.199,0.1931,0.1833,0.1677,0.1715,0.1544,0.1504,0.1509,0.1502,0.137,0.1265,0.1596,0.1596,0.1596,0.1596,0,0.1655,0.1655,0.1693,0.1745,0.1771,0.1828,0.1923,0.1969,0.2035,0.2102,0.2123,0.2125,0.2061,0.1969,0.1829,0.1698,0.1485,0.1517,0.1541,0.1503,0.1249,0.1148,0.0985,0.0931,0.1363,0.1361,0.1359,0,0.1638,0.1654,0.1706,0.1731,0.1754,0.1832,0.1887,0.1969,0.2025,0.2119,0.2153,0.2126,0.2117,0.1903,0.1687,0.1515,0.1428,0.1379,0.1335,0.1236,0.1095,0.1058,0.1024,0.133,0.1328,0.1327,0.1326,0,0.162,0.1641,0.1677,0.1726,0.1773,0.1848,0.1938,0.1976,0.209,0.215,0.2212,0.2212,0.2032,0.185,0.1606,0.1463,0.1262,0.1335,0.1229,0.1052,0.1009,0.094,0.1366,0.1311,0.1313,0.1314,0.1315,0.1315,0.1595,0.1626,0.1665,0.1724,0.1783,0.1867,0.1924,0.2008,0.21,0.2208,0.2235,0.2251,0.2032,0.1681,0.1483,0.1104,0.1097,0.1018,0.0907,0.0884,0.081,0.1201,0.109,0.109,0.109,0.109,0.109,0,0.156,0.1612,0.1657,0.1736,0.1789,0.1837,0.1958,0.2014,0.2108,0.22,0.2268,0.2171,0.1861,0.1552,0.1033,0.0755,0.07,0.0637,0.0611,0.0599,0.0958,0.0934,0.0788,0.0788,0.0788,0.0788,0.0788,0.0788,0.1558,0.1596,0.1637,0.1715,0.1766,0.1842,0.1907,0.1999,0.2089,0.2162,0.2168,0.2204,0.1922,0.1089,0.0541,0.0418,0.0257,0.0212,0.0135,0.04,0.043,0.0458,0.0418,0.0165,0.0164,-0.0116,-0.012,-0.0123]}],[{"header":{"parameterUnit":"m.s-1","parameterCategory":2,"la1":30.2991,"la2":30.254,"lo1":-89.0895,"lo2":-89.0444,"dy":0.0017,"dx":0.0017,"nx":28,"ny":28,"refTime":"2023-08-18T03:00:00:Z","depth":"2","parameterNumber":2,"parameterNumberName":"U-component_of_CURRENTS"},"data":[0,0,0,0,0,0,0,0,0,0,0,0,0,0,0,0,0,0,0,0,0,0,0,0,0,0,0,0,0,0,0,0,0,0,0,0,0,0,0,0,0,0,0,0,0,0,0,0,0,0,0,0,0,0,0,0,0,0,0.1168,0.1167,0,0.1178,0.1179,0.1181,0.1306,0.1308,0.131,0.1311,0.132,0.1318,0.1317,0,0,0,0,0,0,0,0,0,0,0,0,0,0.1191,0.1192,0.1169,0.1167,0.1166,0.1178,0.1179,0.1181,0.1306,0.1308,0.131,0.1312,0.132,0.1319,0.1317,0,0,0,0,0,0,0,0,0,0,0,0,0,0.1203,0.1192,0.1169,0.1218,0.1222,0.1177,0.1179,0.1181,0.1305,0.1308,0.1311,0.1313,0.1321,0.1319,0.1317,0.125,0,0,0.131,0.1309,0,0,0,0,0,0,0,0,0.1203,0.1205,0.1212,0.1215,0.1218,0.123,0.1189,0.1199,0.1305,0.129,0.1311,0.1314,0.1277,0.1279,0.1297,0.1251,0.1251,0.131,0.1309,0.1308,0.1307,0,0,0,0,0,0,0,0.1202,0.1204,0.1188,0.121,0.1214,0.1215,0.1223,0.1193,0.1281,0.1291,0.1297,0.1272,0.1282,0.1299,0.1298,0.1251,0.131,0.1308,0.1307,0.1306,0.1202,0.1201,0,0,0,0,0,0,0.117,0.1204,0.1187,0.1187,0.12,0.1212,0.1221,0.1236,0.1281,0.1286,0.127,0.1278,0.1301,0.13,0.1298,0.131,0.1308,0.1306,0.1304,0.1203,0.1202,0.12,0,0,0,0,0,0,0.1172,0.1171,0.1187,0.1181,0.1181,0.1208,0.1225,0.1235,0.1283,0.1262,0.1271,0.131,0.1303,0.1301,0.1259,0.1308,0.1305,0.1303,0.1205,0.1203,0.1201,0.1276,0,0,0,0,0,0,0.1173,0.1172,0.1184,0.118,0.118,0.1175,0.1221,0.1232,0.1254,0.1266,0.1297,0.13,0.1305,0.1262,0.1257,0.1305,0.1301,0.1207,0.1204,0.1202,0.1276,0.1277,0.1278,0,0,0,0,0,0.1175,0.1135,0.1186,0.1183,0.1193,0.1173,0.1176,0.1213,0.1253,0.1271,0.1264,0.1301,0.1243,0.1257,0.1252,0.1302,0.1208,0.1205,0.1202,0.1275,0.1277,0.1278,0,0,0,0,0,0,0.1086,0.1142,0.1198,0.1167,0.1189,0.1189,0.1203,0.1219,0.1234,0.1276,0.1258,0.1257,0.1257,0.1232,0.1248,0.1255,0.124,0.1236,0.1298,0.1299,0.13,0.1268,0.1299,0,0,0,0,0,0.1087,0.1128,0.1149,0.1132,0.1165,0.1201,0.1202,0.1242,0.1237,0.1255,0.1248,0.1244,0.1231,0.1227,0.1215,0.119,0.1174,0.1219,0.122,0.1222,0.1186,0.1174,0.1173,0.1189,0.1189,0.1189,0,0,0.1027,0.1077,0.1085,0.1125,0.1177,0.1168,0.1217,0.125,0.1227,0.1244,0.1226,0.1252,0.1221,0.1219,0.1217,0.121,0.1217,0.1218,0.122,0.1182,0.1171,0.117,0.1169,0.1187,0.1187,0.1188,0,0,0.096,0.1019,0.1062,0.1077,0.1157,0.1171,0.1182,0.1218,0.1249,0.1222,0.1242,0.1256,0.1227,0.1217,0.1204,0.1179,0.1228,0.1221,0.1203,0.1195,0.1194,0.1193,0.1223,0.1224,0.1219,0.1219,0.1219,0,0.0896,0.0939,0.105,0.1078,0.1061,0.1166,0.1152,0.1173,0.1171,0.1183,0.1225,0.1213,0.1211,0.118,0.1195,0.1188,0.1211,0.1219,0.1201,0.1199,0.1197,0.1227,0.1227,0.1222,0.1222,0.1221,0.1221,0,0.0868,0.0884,0.0897,0.0989,0.0997,0.0993,0.1038,0.1075,0.1131,0.1143,0.1172,0.1178,0.1173,0.1202,0.1194,0.1193,0.1228,0.1218,0.1212,0.1201,0.1232,0.1231,0.1227,0.1226,0.1225,0.1224,0,0,0.0706,0.086,0.0835,0.0899,0.0946,0.0958,0.0953,0.0974,0.1004,0.1047,0.1053,0.1063,0.1141,0.1124,0.1161,0.1155,0.1194,0.1195,0.1194,0.1249,0.1227,0.1248,0.125,0.1216,0.1215,0.1214,0.1276,0,0.0638,0.0683,0.0742,0.0727,0.0768,0.0837,0.0817,0.0867,0.0929,0.0965,0.1024,0.1053,0.1088,0.115,0.1146,0.1186,0.1186,0.1179,0.1203,0.1203,0.1244,0.1245,0.1082,0.1123,0.1275,0.1275,0.1275,0,0.056,0.0616,0.0617,0.0702,0.0722,0.0713,0.0777,0.0777,0.085,0.0914,0.0973,0.1036,0.1057,0.1095,0.1128,0.1144,0.1176,0.1196,0.12,0.1176,0.1219,0.1143,0.1115,0.1272,0.1273,0.1273,0.1273,0,0.0458,0.0497,0.0518,0.052,0.0625,0.0655,0.0701,0.0776,0.0818,0.09,0.0969,0.1002,0.1068,0.1081,0.116,0.1158,0.1206,0.1198,0.1232,0.1236,0.1068,0.1059,0.1179,0.1179,0.1178,0.1178,0.1178,0,0.0349,0.0357,0.0495,0.0502,0.0546,0.0633,0.0686,0.0749,0.0835,0.0893,0.0961,0.1022,0.1074,0.113,0.1159,0.1216,0.1206,0.1215,0.1238,0.1095,0.1088,0.1173,0.1172,0.1181,0.118,0.118,0.1179,0,0.027,0.0329,0.0389,0.0493,0.053,0.058,0.07,0.0744,0.0836,0.0917,0.0951,0.1051,0.1141,0.1194,0.1239,0.1236,0.1263,0.1277,0.1136,0.114,0.13,0.1301,0.13,0.1301,0.1302,0.1303,0.1303,0,0.0261,0.0284,0.0388,0.0425,0.0487,0.0573,0.063,0.0739,0.079,0.0937,0.097,0.1092,0.1161,0.1255,0.1258,0.1296,0.133,0.1174,0.1097,0.1282,0.1305,0.1305,0.1305,0.0926,0.0923,0.0921,0.092,0,0.0243,0.0277,0.0324,0.0402,0.0471,0.054,0.0638,0.0675,0.0801,0.0879,0.0996,0.106,0.1166,0.1145,0.1206,0.1187,0.1151,0.1135,0.1336,0.0933,0.0936,0.0958,0.0968,0.0901,0.0903,0.0904,0.0905,0.0906,0.0229,0.0254,0.031,0.0383,0.0451,0.0512,0.0559,0.0642,0.0725,0.0827,0.0924,0.0994,0.1001,0.1027,0.1033,0.1041,0.1098,0.1012,0.1014,0.102,0.0977,0.0983,0.0951,0.0953,0.0954,0.0956,0.0957,0,0.0212,0.0247,0.0294,0.0371,0.0417,0.0486,0.0563,0.0581,0.0658,0.0741,0.0825,0.0784,0.0768,0.0843,0.0814,0.0818,0.0759,0.0797,0.0693,0.071,0.0726,0.0666,0.0558,0.0558,0.0557,0.0557,0,0,0.0202,0.0232,0.0254,0.0323,0.0388,0.0452,0.0494,0.0519,0.0561,0.0603,0.0651,0.0672,0.0751,0.0639,0.0614,0.0603,0.065,0.0568,0.0868,0.0756,0.0772,0.0812,0.0735,0,0,0,0,0]},{"header":{"parameterUnit":"m.s-1","parameterCategory":2,"la1":30.2991,"la2":30.254,"lo1":-89.0895,"lo2":-89.0444,"dy":0.0017,"dx":0.0017,"nx":28,"ny":28,"refTime":"2023-08-18T03:00:00:Z","depth":"2","parameterNumber":3,"parameterNumberName":"V-component_of_CURRENTS"},"data":[0,0,0,0,0,0,0,0,0,0,0,0,0,0,0,0,0,0,0,0,0,0,0,0,0,0,0,0,0,0,0,0,0,0,0,0,0,0,0,0,0,0,0,0,0,0,0,0,0,0,0,0,0,0,0,0,0,0,-0.0294,-0.0296,0,-0.0409,-0.041,-0.041,-0.0372,-0.0371,-0.0369,-0.0368,-0.0372,-0.0373,-0.0375,0,0,0,0,0,0,0,0,0,0,0,0,0,-0.0279,-0.0277,-0.0294,-0.0296,-0.0299,-0.0409,-0.041,-0.041,-0.0372,-0.0371,-0.0369,-0.0367,-0.0372,-0.0373,-0.0375,0,0,0,0,0,0,0,0,0,0,0,0,0,-0.0317,-0.0276,-0.0293,-0.0302,-0.0305,-0.0409,-0.041,-0.041,-0.0373,-0.0371,-0.0369,-0.0367,-0.0371,-0.0373,-0.0375,-0.0429,0,0,-0.0382,-0.0382,0,0,0,0,0,0,0,0,-0.0314,-0.0316,-0.0299,-0.0302,-0.0306,-0.0385,-0.0407,-0.0415,-0.0373,-0.0334,-0.0368,-0.0366,-0.0376,-0.0377,-0.0388,-0.0429,-0.0429,-0.0382,-0.0383,-0.0384,-0.0384,0,0,0,0,0,0,0,-0.0311,-0.0312,-0.0327,-0.0302,-0.0306,-0.0384,-0.0383,-0.0409,-0.0353,-0.0337,-0.0338,-0.0371,-0.0375,-0.0386,-0.0387,-0.043,-0.0382,-0.0383,-0.0385,-0.0386,-0.0543,-0.0546,0,0,0,0,0,0,-0.0311,-0.0308,-0.0324,-0.0332,-0.0319,-0.0386,-0.0385,-0.0352,-0.0355,-0.0359,-0.0373,-0.0369,-0.0383,-0.0385,-0.0387,-0.0427,-0.0384,-0.0386,-0.0387,-0.054,-0.0544,-0.0547,0,0,0,0,0,0,-0.0309,-0.0309,-0.0319,-0.0337,-0.0345,-0.0387,-0.0352,-0.0355,-0.0333,-0.0386,-0.0384,-0.0344,-0.0382,-0.0384,-0.0468,-0.0427,-0.0387,-0.0389,-0.0537,-0.0541,-0.0546,-0.0522,0,0,0,0,0,0,-0.0307,-0.0305,-0.0278,-0.0334,-0.0344,-0.0371,-0.0355,-0.0359,-0.0365,-0.036,-0.0362,-0.0362,-0.038,-0.0466,-0.047,-0.0429,-0.039,-0.0533,-0.0539,-0.0544,-0.0519,-0.0525,-0.053,0,0,0,0,0,-0.0305,-0.0319,-0.0274,-0.0278,-0.0303,-0.0374,-0.0384,-0.0403,-0.0365,-0.0368,-0.0421,-0.036,-0.0501,-0.0473,-0.0476,-0.0434,-0.053,-0.0537,-0.0544,-0.0517,-0.0524,-0.053,0,0,0,0,0,0,-0.0364,-0.0319,-0.0271,-0.028,-0.0305,-0.0371,-0.0371,-0.0386,-0.0423,-0.0387,-0.0428,-0.0437,-0.0487,-0.0495,-0.0462,-0.0506,-0.0492,-0.05,-0.047,-0.0477,-0.0482,-0.049,-0.0392,0,0,0,0,0,-0.0344,-0.0309,-0.0304,-0.0328,-0.0285,-0.0305,-0.0329,-0.0333,-0.0387,-0.0393,-0.0426,-0.0461,-0.0524,-0.0529,-0.0582,-0.0613,-0.0615,-0.0587,-0.0592,-0.0596,-0.0613,-0.0639,-0.0646,-0.0569,-0.0569,-0.0569,0,0,-0.039,-0.0366,-0.0351,-0.0333,-0.0307,-0.0321,-0.0307,-0.0313,-0.0375,-0.0391,-0.0457,-0.0484,-0.055,-0.0603,-0.0617,-0.0593,-0.0615,-0.0605,-0.0607,-0.0622,-0.0646,-0.0653,-0.0659,-0.0573,-0.0573,-0.0572,0,0,-0.046,-0.0386,-0.0335,-0.0333,-0.0297,-0.0327,-0.0316,-0.0329,-0.0341,-0.0431,-0.0464,-0.0503,-0.0576,-0.0628,-0.0663,-0.0737,-0.066,-0.0705,-0.0709,-0.0733,-0.0738,-0.0743,-0.0717,-0.072,-0.0685,-0.0685,-0.0685,0,-0.0498,-0.0446,-0.0363,-0.0326,-0.035,-0.0318,-0.0318,-0.0358,-0.0443,-0.0462,-0.0445,-0.0569,-0.0601,-0.0693,-0.0723,-0.0739,-0.0723,-0.0663,-0.0734,-0.0739,-0.0744,-0.0717,-0.0721,-0.0685,-0.0685,-0.0685,-0.0685,0,-0.0501,-0.0475,-0.0455,-0.0376,-0.0397,-0.0407,-0.042,-0.0438,-0.0442,-0.049,-0.0548,-0.0618,-0.068,-0.068,-0.0729,-0.0771,-0.0736,-0.0745,-0.0698,-0.0749,-0.0719,-0.0722,-0.0684,-0.0684,-0.0685,-0.0685,0,0,-0.0554,-0.0458,-0.0462,-0.0413,-0.0412,-0.0425,-0.0492,-0.0538,-0.0542,-0.0599,-0.0633,-0.0746,-0.071,-0.0756,-0.0773,-0.0793,-0.0804,-0.0771,-0.0772,-0.0712,-0.0806,-0.0718,-0.0712,-0.0802,-0.0804,-0.0805,-0.0754,0,-0.0569,-0.0524,-0.0508,-0.053,-0.0474,-0.0485,-0.0558,-0.06,-0.0623,-0.0651,-0.0686,-0.0723,-0.0761,-0.0735,-0.078,-0.0803,-0.0819,-0.0815,-0.0798,-0.0797,-0.0685,-0.0717,-0.0737,-0.0689,-0.0758,-0.0758,-0.0759,0,-0.0548,-0.0528,-0.0515,-0.0512,-0.0479,-0.0523,-0.0546,-0.0607,-0.065,-0.0648,-0.0678,-0.0692,-0.0755,-0.0753,-0.0827,-0.0808,-0.082,-0.0831,-0.0829,-0.0764,-0.0717,-0.0663,-0.0693,-0.0764,-0.0764,-0.0763,-0.0763,0,-0.0552,-0.0544,-0.0538,-0.0538,-0.053,-0.0531,-0.0551,-0.0585,-0.0589,-0.062,-0.0586,-0.0675,-0.066,-0.0734,-0.0766,-0.0785,-0.0804,-0.0831,-0.077,-0.0761,-0.079,-0.078,-0.0892,-0.0892,-0.0892,-0.0892,-0.0893,0,-0.0561,-0.0549,-0.0518,-0.0498,-0.0483,-0.0486,-0.0472,-0.0491,-0.05,-0.0477,-0.0556,-0.0536,-0.065,-0.0672,-0.0739,-0.0742,-0.0784,-0.0779,-0.0755,-0.0778,-0.077,-0.0859,-0.0856,-0.089,-0.0891,-0.0891,-0.0892,0,-0.0521,-0.0519,-0.0475,-0.0461,-0.0453,-0.042,-0.0393,-0.0377,-0.039,-0.0356,-0.0354,-0.0413,-0.0436,-0.053,-0.0606,-0.0658,-0.07,-0.0692,-0.068,-0.0656,-0.0648,-0.0645,-0.0634,-0.0631,-0.0628,-0.0626,-0.0624,0,-0.0481,-0.0455,-0.0416,-0.0387,-0.0363,-0.0325,-0.0301,-0.0312,-0.0289,-0.0272,-0.0246,-0.0256,-0.0262,-0.0329,-0.0427,-0.0503,-0.0582,-0.0562,-0.0636,-0.065,-0.0628,-0.063,-0.063,-0.0654,-0.0652,-0.0651,-0.065,0,-0.0405,-0.0389,-0.0356,-0.0299,-0.0256,-0.0219,-0.0179,-0.0144,-0.0146,-0.0107,-0.0057,-0.0055,-0.0111,-0.0209,-0.0302,-0.0371,-0.0559,-0.0533,-0.0574,-0.07,-0.0661,-0.0642,-0.0644,-0.0639,-0.064,-0.0641,-0.0641,-0.0642,-0.0344,-0.0308,-0.0273,-0.0217,-0.0169,-0.0118,-0.0064,-0.0022,0.0042,0.0109,0.009,0.0091,-0.007,-0.0182,-0.0269,-0.0368,-0.0396,-0.0501,-0.0509,-0.0518,-0.0514,-0.0471,-0.0409,-0.0409,-0.0409,-0.0409,-0.0409,0,-0.0294,-0.0262,-0.0203,-0.0143,-0.0084,-0.0065,0.0006,0.0057,0.0163,0.0195,0.025,0.0092,-0.0003,-0.0161,-0.0287,-0.0362,-0.0412,-0.0407,-0.0506,-0.0516,-0.0526,-0.0526,-0.0423,-0.0422,-0.0422,-0.0422,0,0,-0.0267,-0.0219,-0.0198,-0.0097,-0.0034,0.0065,0.0123,0.0206,0.0234,0.026,0.0242,0.0217,-0.0014,-0.0125,-0.0263,-0.034,-0.0396,-0.0341,-0.033,-0.0443,-0.045,-0.0586,-0.0598,0,0,0,0,0]}],[{"header":{"parameterUnit":"m.s-1","parameterCategory":2,"la1":30.2991,"la2":30.254,"lo1":-89.0895,"lo2":-89.0444,"dy":0.0017,"dx":0.0017,"nx":28,"ny":28,"refTime":"2023-08-18T03:00:00:Z","depth":"4","parameterNumber":2,"parameterNumberName":"U-component_of_CURRENTS"},"data":[0,0,0,0,0,0,0,0,0,0,0,0,0,0,0,0,0,0,0,0,0,0,0,0,0,0,0,0,0,0,0,0,0,0,0,0,0,0,0,0,0,0,0,0,0,0,0,0,0,0,0,0,0,0,0,0,0,0,0.0221,0.0222,0,0.0208,0.0207,0.0206,0.0174,0.0174,0.0174,0.0175,0.0141,0.014,0.0139,0,0,0,0,0,0,0,0,0,0,0,0,0,0.0181,0.0182,0.0221,0.0222,0.0223,0.0208,0.0207,0.0206,0.0174,0.0174,0.0174,0.0175,0.0142,0.014,0.0139,0,0,0,0,0,0,0,0,0,0,0,0,0,0.0176,0.0182,0.0221,0.0213,0.0213,0.0208,0.0207,0.0205,0.0174,0.0174,0.0175,0.0175,0.0142,0.014,0.0139,0.0117,0,0,0.0133,0.0132,0,0,0,0,0,0,0,0,0.0176,0.0176,0.0214,0.0214,0.0214,0.0203,0.0181,0.0179,0.0173,0.0177,0.0175,0.0175,0.0167,0.0163,0.0144,0.0116,0.0114,0.0133,0.0132,0.0131,0.0131,0,0,0,0,0,0,0,0.0177,0.0177,0.0205,0.0215,0.0215,0.0199,0.0197,0.018,0.016,0.0177,0.0177,0.0193,0.0165,0.0146,0.0143,0.0114,0.0133,0.0131,0.013,0.013,0.0072,0.0071,0,0,0,0,0,0,0.0202,0.0177,0.0206,0.0206,0.0209,0.02,0.0198,0.0197,0.0161,0.0159,0.0193,0.0192,0.0148,0.0145,0.0142,0.0123,0.0131,0.0129,0.0128,0.0072,0.0072,0.0071,0,0,0,0,0,0,0.0201,0.0204,0.0206,0.0201,0.0201,0.0201,0.0199,0.0197,0.0192,0.0175,0.0171,0.0195,0.0149,0.0144,0.0132,0.0122,0.0129,0.0127,0.0073,0.0072,0.0071,0.0081,0,0,0,0,0,0,0.0199,0.0203,0.0195,0.0202,0.0203,0.0214,0.02,0.0196,0.0206,0.0204,0.0176,0.0172,0.0149,0.0135,0.013,0.012,0.0126,0.0073,0.0073,0.0072,0.0082,0.0081,0.0081,0,0,0,0,0,0.0197,0.0186,0.0194,0.0198,0.0197,0.0216,0.0213,0.0207,0.0206,0.0203,0.0182,0.0174,0.0126,0.0133,0.0128,0.0116,0.0074,0.0073,0.0072,0.0082,0.0081,0.0081,0,0,0,0,0,0,0.0178,0.0183,0.0192,0.0186,0.0211,0.0215,0.0208,0.0217,0.0196,0.0189,0.0171,0.0165,0.0145,0.0133,0.0142,0.0097,0.0097,0.0095,0.0106,0.0106,0.0105,0.0125,0.0124,0,0,0,0,0,0.0172,0.0162,0.0183,0.0191,0.0193,0.0205,0.0208,0.0213,0.0209,0.02,0.0188,0.0163,0.0132,0.0125,0.0097,0.0081,0.009,0.0069,0.0069,0.0068,0.008,0.0076,0.0076,0.0068,0.0068,0.0068,0,0,0.0178,0.0178,0.0178,0.0186,0.0193,0.0201,0.0204,0.0216,0.0222,0.02,0.0189,0.0162,0.0127,0.0098,0.0089,0.0092,0.0078,0.0067,0.0067,0.008,0.0075,0.0076,0.0077,0.0067,0.0067,0.0067,0,0,0.019,0.0176,0.0171,0.0178,0.0197,0.0201,0.0215,0.0224,0.0217,0.0215,0.0187,0.0167,0.0134,0.0104,0.0084,0.007,0.0072,0.0055,0.0073,0.0067,0.0069,0.007,0.0097,0.0101,0.0059,0.0059,0.0059,0,0.02,0.0193,0.0181,0.018,0.0189,0.0208,0.0219,0.0212,0.0223,0.0219,0.0216,0.0164,0.0136,0.0099,0.0085,0.007,0.0078,0.0077,0.0069,0.007,0.0071,0.0098,0.0102,0.0059,0.0059,0.0059,0.0059,0,0.0205,0.0202,0.0202,0.0201,0.0206,0.0219,0.0223,0.0228,0.0231,0.0229,0.0206,0.0169,0.0144,0.0122,0.0096,0.0079,0.0088,0.0066,0.0074,0.0072,0.0101,0.0105,0.006,0.0059,0.0059,0.0059,0,0,0.0223,0.0209,0.021,0.0213,0.0213,0.0225,0.0227,0.0236,0.0242,0.0234,0.0234,0.0177,0.0167,0.0144,0.0111,0.0105,0.0114,0.009,0.0089,0.0126,0.0129,0.0151,0.0157,0.0087,0.0088,0.0088,0.0153,0,0.024,0.0239,0.0227,0.0243,0.0241,0.0245,0.0248,0.0252,0.0251,0.0251,0.0217,0.0195,0.0171,0.0154,0.0144,0.0112,0.0122,0.0101,0.0118,0.012,0.0146,0.0161,0.0089,0.0156,0.0156,0.0157,0.0157,0,0.0239,0.0238,0.0248,0.0253,0.0253,0.0266,0.0275,0.0279,0.0272,0.0266,0.0251,0.0228,0.0207,0.0185,0.0172,0.0159,0.0152,0.014,0.0141,0.0163,0.0148,0.0152,0.0164,0.0164,0.0163,0.0163,0.0162,0,0.0241,0.025,0.026,0.0259,0.0267,0.0276,0.0285,0.0284,0.0281,0.0275,0.0279,0.0255,0.0245,0.0229,0.0209,0.0189,0.0209,0.0176,0.0201,0.0204,0.016,0.0158,0.0182,0.0182,0.0182,0.0182,0.0182,0,0.0241,0.0248,0.0263,0.0264,0.028,0.0278,0.0293,0.0297,0.0295,0.029,0.0284,0.0279,0.0254,0.0257,0.0234,0.0243,0.0234,0.0222,0.022,0.0165,0.0162,0.0164,0.0161,0.0184,0.0184,0.0183,0.0183,0,0.0228,0.024,0.0248,0.0267,0.0277,0.0281,0.0296,0.0299,0.0307,0.0304,0.0302,0.0303,0.0311,0.0309,0.0293,0.0286,0.0281,0.0287,0.0265,0.0259,0.0278,0.0275,0.0327,0.0329,0.033,0.0331,0.0332,0,0.0215,0.022,0.0246,0.0254,0.0263,0.0276,0.0284,0.0295,0.0294,0.0311,0.0305,0.0329,0.0327,0.0345,0.0333,0.0342,0.0324,0.0346,0.0281,0.0299,0.0292,0.0287,0.0282,0.0333,0.0334,0.0334,0.0334,0,0.0193,0.0208,0.0213,0.0234,0.0248,0.0258,0.0269,0.0276,0.0286,0.0302,0.0304,0.0318,0.0343,0.0342,0.0372,0.0358,0.034,0.0357,0.0353,0.0292,0.0307,0.0298,0.0292,0.0338,0.0337,0.0337,0.0337,0,0.0172,0.0173,0.0191,0.0205,0.0224,0.0235,0.0248,0.0256,0.0263,0.0288,0.0286,0.0311,0.0326,0.0352,0.0361,0.0377,0.036,0.0346,0.0343,0.0339,0.0312,0.0329,0.0381,0,0,0,0,0,0.0149,0.0154,0.0164,0.0184,0.0203,0.0216,0.0234,0.0246,0.0271,0.0268,0.0277,0.0292,0.0323,0.0335,0.0353,0.0373,0.0365,0.0395,0.0348,0.0359,0.0354,0.0321,0,0,0,0,0,0,0.0133,0.0142,0.0153,0.0165,0.0178,0.0195,0.0208,0.0224,0.0226,0.0252,0.0264,0.029,0.0316,0.0306,0.0348,0.0357,0.0328,0.0415,0.0416,0.0361,0.0357,0.0354,0.0318,0,0,0,0,0]},{"header":{"parameterUnit":"m.s-1","parameterCategory":2,"la1":30.2991,"la2":30.254,"lo1":-89.0895,"lo2":-89.0444,"dy":0.0017,"dx":0.0017,"nx":28,"ny":28,"refTime":"2023-08-18T03:00:00:Z","depth":"4","parameterNumber":3,"parameterNumberName":"V-component_of_CURRENTS"},"data":[0,0,0,0,0,0,0,0,0,0,0,0,0,0,0,0,0,0,0,0,0,0,0,0,0,0,0,0,0,0,0,0,0,0,0,0,0,0,0,0,0,0,0,0,0,0,0,0,0,0,0,0,0,0,0,0,0,0,-0.0435,-0.0434,0,-0.0469,-0.047,-0.0471,-0.0565,-0.0566,-0.0567,-0.0569,-0.0651,-0.0652,-0.0653,0,0,0,0,0,0,0,0,0,0,0,0,0,-0.0461,-0.046,-0.0435,-0.0434,-0.0434,-0.0469,-0.047,-0.0472,-0.0565,-0.0566,-0.0568,-0.0569,-0.0651,-0.0652,-0.0653,0,0,0,0,0,0,0,0,0,0,0,0,0,-0.0476,-0.046,-0.0435,-0.0478,-0.0482,-0.0469,-0.047,-0.0472,-0.0565,-0.0566,-0.0568,-0.057,-0.065,-0.0652,-0.0654,-0.0627,0,0,-0.0658,-0.0659,0,0,0,0,0,0,0,0,-0.0475,-0.0476,-0.0472,-0.0475,-0.0479,-0.0507,-0.0509,-0.0523,-0.0564,-0.0543,-0.0569,-0.0571,-0.06,-0.0606,-0.062,-0.0631,-0.0635,-0.0659,-0.066,-0.066,-0.0661,0,0,0,0,0,0,0,-0.0474,-0.0475,-0.0457,-0.0471,-0.0476,-0.0499,-0.0504,-0.0513,-0.0569,-0.0545,-0.0549,-0.0538,-0.0604,-0.0619,-0.0623,-0.0636,-0.0659,-0.066,-0.0661,-0.0662,-0.0711,-0.0712,0,0,0,0,0,0,-0.0449,-0.0474,-0.0456,-0.0458,-0.0471,-0.0496,-0.0502,-0.0503,-0.0568,-0.0576,-0.0537,-0.0542,-0.0615,-0.0621,-0.0626,-0.0668,-0.066,-0.0662,-0.0663,-0.0711,-0.0711,-0.0712,0,0,0,0,0,0,-0.045,-0.0447,-0.0455,-0.0459,-0.046,-0.0493,-0.0494,-0.0503,-0.0547,-0.0559,-0.0571,-0.0574,-0.0617,-0.0624,-0.0659,-0.0669,-0.0662,-0.0664,-0.0711,-0.0711,-0.0712,-0.0707,0,0,0,0,0,0,-0.045,-0.0448,-0.046,-0.0457,-0.0459,-0.0466,-0.0491,-0.0502,-0.0531,-0.0541,-0.0594,-0.0602,-0.0619,-0.0657,-0.0661,-0.0671,-0.0665,-0.071,-0.0711,-0.0711,-0.0707,-0.0707,-0.0708,0,0,0,0,0,-0.0452,-0.0451,-0.0461,-0.0459,-0.0469,-0.0465,-0.047,-0.0505,-0.0532,-0.0553,-0.0589,-0.0602,-0.0664,-0.0658,-0.0663,-0.0674,-0.071,-0.0711,-0.0711,-0.0706,-0.0707,-0.0708,0,0,0,0,0,0,-0.0455,-0.046,-0.0471,-0.047,-0.0475,-0.0478,-0.0497,-0.0514,-0.056,-0.0582,-0.0605,-0.0615,-0.0651,-0.066,-0.0653,-0.0691,-0.0689,-0.0691,-0.0684,-0.0685,-0.0685,-0.0675,-0.0667,0,0,0,0,0,-0.0458,-0.0466,-0.0468,-0.0462,-0.0476,-0.0493,-0.0502,-0.0522,-0.0544,-0.057,-0.0604,-0.0635,-0.065,-0.0668,-0.0689,-0.0704,-0.0693,-0.0715,-0.0716,-0.0716,-0.0712,-0.0699,-0.0697,-0.0714,-0.0714,-0.0714,0,0,-0.0447,-0.0451,-0.0453,-0.0464,-0.048,-0.0483,-0.0508,-0.0526,-0.0524,-0.0567,-0.0605,-0.0642,-0.0656,-0.0681,-0.0697,-0.0695,-0.0705,-0.0717,-0.0717,-0.0713,-0.0699,-0.0697,-0.0696,-0.0715,-0.0715,-0.0715,0,0,-0.0412,-0.0448,-0.0446,-0.0459,-0.0478,-0.0492,-0.05,-0.053,-0.0554,-0.0582,-0.0609,-0.0646,-0.0686,-0.069,-0.0694,-0.0704,-0.071,-0.0728,-0.0721,-0.0709,-0.0707,-0.0705,-0.0682,-0.0678,-0.0726,-0.0726,-0.0726,0,-0.0397,-0.0401,-0.044,-0.0443,-0.0449,-0.0495,-0.0492,-0.051,-0.0544,-0.0557,-0.0599,-0.0657,-0.0679,-0.0675,-0.0695,-0.0703,-0.0704,-0.0717,-0.0708,-0.0706,-0.0704,-0.0681,-0.0677,-0.0726,-0.0726,-0.0726,-0.0726,0,-0.0365,-0.0377,-0.0379,-0.0402,-0.0416,-0.0426,-0.0449,-0.0486,-0.0534,-0.0546,-0.0589,-0.0629,-0.0664,-0.0679,-0.0697,-0.0697,-0.0703,-0.071,-0.0703,-0.0702,-0.0678,-0.0673,-0.0726,-0.0726,-0.0726,-0.0726,0,0,-0.0312,-0.0348,-0.0353,-0.0372,-0.0406,-0.0418,-0.0425,-0.0445,-0.0463,-0.0519,-0.053,-0.0579,-0.0629,-0.0637,-0.0667,-0.0667,-0.0661,-0.0699,-0.0698,-0.0668,-0.0637,-0.0616,-0.0609,-0.068,-0.0679,-0.0679,-0.0622,0,-0.0279,-0.028,-0.0301,-0.0312,-0.0332,-0.0378,-0.0379,-0.0406,-0.0447,-0.0478,-0.0513,-0.055,-0.0598,-0.0641,-0.0645,-0.0665,-0.0652,-0.0675,-0.0648,-0.0646,-0.0622,-0.0604,-0.0677,-0.0619,-0.0618,-0.0617,-0.0617,0,-0.0253,-0.0265,-0.0264,-0.0303,-0.0317,-0.0331,-0.0383,-0.0389,-0.0419,-0.0453,-0.0493,-0.0528,-0.0548,-0.0593,-0.0601,-0.0625,-0.0632,-0.0638,-0.0636,-0.0614,-0.0618,-0.0622,-0.0609,-0.0609,-0.061,-0.061,-0.0611,0,-0.0236,-0.0249,-0.0255,-0.0268,-0.0307,-0.0331,-0.0366,-0.0398,-0.0411,-0.045,-0.047,-0.0496,-0.0521,-0.0539,-0.0568,-0.0597,-0.056,-0.0587,-0.0557,-0.0555,-0.0593,-0.0596,-0.0567,-0.0567,-0.0567,-0.0567,-0.0567,0,-0.0213,-0.0231,-0.0263,-0.0281,-0.0308,-0.0341,-0.0378,-0.041,-0.0437,-0.0429,-0.0473,-0.0466,-0.0518,-0.0507,-0.0537,-0.0528,-0.0528,-0.0545,-0.0537,-0.0593,-0.0596,-0.059,-0.0593,-0.0565,-0.0565,-0.0566,-0.0566,0,-0.021,-0.0219,-0.0241,-0.0284,-0.0306,-0.034,-0.04,-0.0414,-0.0447,-0.0436,-0.0447,-0.0448,-0.0439,-0.0458,-0.0463,-0.0478,-0.0475,-0.0464,-0.0501,-0.0498,-0.0486,-0.049,-0.0431,-0.043,-0.0429,-0.0428,-0.0427,0,-0.0212,-0.022,-0.0254,-0.0264,-0.0296,-0.0351,-0.0373,-0.0424,-0.0414,-0.0408,-0.0373,-0.0374,-0.037,-0.0345,-0.0384,-0.0402,-0.0414,-0.0407,-0.0473,-0.0473,-0.0471,-0.0477,-0.0483,-0.0426,-0.0425,-0.0425,-0.0425,0,-0.0223,-0.023,-0.0242,-0.0258,-0.0286,-0.031,-0.0341,-0.0338,-0.0352,-0.0368,-0.0311,-0.0318,-0.0287,-0.031,-0.0319,-0.0338,-0.0418,-0.0397,-0.04,-0.0462,-0.0465,-0.0466,-0.0473,-0.0421,-0.0422,-0.0422,-0.0422,0,-0.023,-0.0229,-0.0229,-0.025,-0.0265,-0.0263,-0.0292,-0.0277,-0.0285,-0.0266,-0.0236,-0.024,-0.0247,-0.0272,-0.0276,-0.03,-0.0326,-0.0349,-0.0356,-0.0361,-0.0374,-0.0369,-0.0276,0,0,0,0,0,-0.0234,-0.0222,-0.0226,-0.0232,-0.0241,-0.0259,-0.025,-0.0263,-0.0262,-0.021,-0.0232,-0.0203,-0.0226,-0.0234,-0.0252,-0.0274,-0.0337,-0.0297,-0.0369,-0.0401,-0.0405,-0.0432,0,0,0,0,0,0,-0.0225,-0.022,-0.0215,-0.0214,-0.0224,-0.0231,-0.0232,-0.0228,-0.0198,-0.0196,-0.0201,-0.0217,-0.0234,-0.0221,-0.0257,-0.0265,-0.0314,-0.0312,-0.0313,-0.0398,-0.0402,-0.0406,-0.0435,0,0,0,0,0]}]]